Torna al catalogo

PEGASUS DEB

AttivoPO
NORAD 39314·DEBRIS·🇺🇸 United States

Lanciato May 19, 1994 da Vandenberg Space Force Base

Loading…

Prossimi Passaggi (prossime 24 ore)

TLE

AggiornatoSource: Space-Track

Epoca: Sep 14, 2026, 10:28 UTC

1 39314U 94029AEZ 26257.43611499  .00001996  00000-0  25106-3 0  9995
2 39314  81.6555 146.1409 0153690 212.9654 146.1902 14.73585954673864

Traccia PEGASUS DEB in tempo reale con AllMySat

Download on the App Store